Regional Weather Roundup
Issued by NWS

Home | Current Version | Previous Version | Text Only | Print | Product List | Glossary Off
Versions: 1 2 3 4 5 6 7 8 9 10 11 12 13 14 15 16 17 18 19 20 21 22 23 24 25 26 27 28 29 30 31 32 33 34 35 36 37 38 39 40 41 42 43 44 45 46 47 48 49 50

000
ASUS44 KMEG 242110
RWRTN
TENNESSEE HOURLY STATE WEATHER ROUNDUP
NATIONAL WEATHER SERVICE MEMPHIS TN
400 PM CDT WED MAY 24 2017

TNZ002-004-019-021-049-052-054-088>092-242200-
WEST TENNESSEE

CITY           SKY/WX    TMP DP  RH WIND       PRES   REMARKS
MEMPHIS INTL   CLOUDY    68  48  48 NW14      29.58S
NWS MEMPHIS      N/A     67 N/A N/A MISG        N/A
JACKSON        CLOUDY    70  52  52 W15G22    29.55F
DYERSBURG        N/A    N/A N/A N/A MISG        N/A
COVINGTON      PTSUNNY   70  52  52 NW17G24   29.57S
BOLIVAR        MOSUNNY   68  50  52 W13G18    29.56R
PARIS          PTSUNNY   63  54  72 W12G17    29.53R
HUNTINGDON     PTSUNNY   66  50  55 W7G15     29.53R
LEXINGTON      PTSUNNY   66  54  63 MISG      29.53F
SELMER         PTSUNNY   66  50  55 NW10G16   29.55R
SAVANNAH       MOSUNNY   68  54  60 W7        29.53F
$$

TNZ008-025-027-028-033-062-065-066-242200-
NORTH MIDDLE TENNESSEE

CITY           SKY/WX    TMP DP  RH WIND       PRES   REMARKS
NASHVILLE      CLOUDY    62  53  72 W8G20     29.53R
PORTLAND       CLOUDY    57  54  88 NW9G20    29.49R
CLARKSVILLE    CLOUDY    61  53  75 NW9       29.52R
SMYRNA         CLOUDY    61  54  77 W13       29.55R
COOKEVILLE     CLOUDY    61  55  82 SW14G20   29.48R
GALLATIN       CLOUDY    59  55  88 W8G18     29.53R
CROSSVILLE     MOSUNNY   62  53  72 W20G31    29.49S
$$

TNZ061-075-076-078-094-096-097-242200-
SOUTH MIDDLE TENNESSEE

CITY           SKY/WX    TMP DP  RH WIND       PRES   REMARKS
FAYETTEVILLE   CLOUDY    64  54  68 VRB6G13   29.54F
TULLAHOMA      PTSUNNY   61  52  72 NW14      29.55S
WINCHESTER     CLOUDY    63  54  72 W10         N/A
COLUMBIA       MOSUNNY   64  52  63 VRB3      29.52F
SHELBYVILLE    CLOUDY    61  54  77 NW8       29.55R
$$

TNZ017-018-042-046-047-242200-
NORTHEAST TENNESSEE

CITY           SKY/WX    TMP DP  RH WIND       PRES   REMARKS
TRI CITIES     CLOUDY    66  60  81 CALM      29.49F
ELIZABETHTON   CLOUDY    63  59  88 E7        29.49F
$$

TNZ012-013-036-069-073-074-242200-
CENTRAL EAST TENNESSEE

CITY           SKY/WX    TMP DP  RH WIND       PRES   REMARKS
KNOXVILLE      PTSUNNY   71  57  61 S25       29.43S
OAK RIDGE      PTSUNNY   66  59  78 VRB5      29.46R
DOWNTOWN KNOXV PTSUNNY   73  59  60 W16G26    29.42F
GATLINBURG     PTSUNNY   75  57  53 SW3       29.43S
MORRISTOWN     PTSUNNY   70  59  68 SW8       29.44F
JACKSBORO      CLOUDY    68  55  64 SW8G17    29.46R
$$

TNZ083-085-099-242200-
SOUTHEAST TENNESSEE

CITY           SKY/WX    TMP DP  RH WIND       PRES   REMARKS
CHATTANOOGA    PTSUNNY   70  54  56 W15G24    29.49S
$$

SKY/WX REPORTED AS FAIR MEANS FEW OR NO CLOUDS BELOW
12 THOUSAND FEET.





USA.gov is the U.S. government's official web portal to all federal, state and local government web resources and services.